Weather reports worldwide

Advertisment
Bergamo/Orio al Serio, Italy (16076): temperature & dewpoint: 15.05.2019 13:00:00 - 21.05.2019 13:00:00 (CEST)Bergamo/Orio al Serio, Italy (16076): wind speed: 15.05.2019 13:00:00 - 21.05.2019 13:00:00 (CEST)Bergamo/Orio al Serio, Italy (16076): wind direction: 15.05.2019 13:00:00 - 21.05.2019 13:00:00 (CEST)Bergamo/Orio al Serio, Italy (16076): reduced air pressure: 15.05.2019 13:00:00 - 21.05.2019 13:00:00 (CEST)Bergamo/Orio al Serio, Italy (16076): visibility: 15.05.2019 13:00:00 - 21.05.2019 13:00:00 (CEST)Bergamo/Orio al Serio, Italy (16076): precipitation: 15.05.2019 13:00:00 - 21.05.2019 13:00:00 (CEST)
Date & Time tt [°C] td [°C] ff [km/h] ff [kn] dd ppp [hPa] vv [km] rr [mm]
21.05.2019 13:00:00 20,0 14,0 5 3 S - 10 -
21.05.2019 12:00:00 18,0 13,0 2 1 - - 10 -
21.05.2019 11:00:00 16,1 12,6 8 4 WSW 1008,6 10 0,0
21.05.2019 10:00:00 15,0 12,0 8 4 W - 10 -
21.05.2019 09:00:00 14,0 12,0 4 2 - - 9 -
21.05.2019 08:00:00 12,3 11,6 4 2 - 1007,7 8 -
21.05.2019 07:00:00 11,0 11,0 4 2 N - 10 -
21.05.2019 06:00:00 12,0 11,0 4 2 - - 10 -
21.05.2019 05:00:00 12,1 10,6 4 2 - 1007,1 10 0,0
21.05.2019 04:00:00 12,0 11,0 8 4 W - 10 -
21.05.2019 03:00:00 13,0 11,0 16 9 W - 10 -
21.05.2019 02:00:00 13,3 10,7 16 9 W 1007,3 10 -
21.05.2019 01:00:00 14,0 11,0 16 9 W - 10 -
21.05.2019 00:00:00 14,0 12,0 11 6 W - 10 -
20.05.2019 23:00:00 13,9 12,3 11 6 W 1007,2 10 0,0
20.05.2019 22:00:00 14,0 13,0 9 5 WSW - 8 -
20.05.2019 21:00:00 14,0 13,0 8 4 WSW - 8 -
20.05.2019 20:00:00 14,4 13,6 9 5 SW 1006,3 7 -
20.05.2019 19:00:00 15,0 14,0 8 4 SW - 5 -
20.05.2019 18:00:00 14,0 13,0 8 4 WSW - 5 -
20.05.2019 17:00:00 14,1 13,4 4 2 - 1006,2 4,0 0,0
20.05.2019 16:00:00 14,0 13,0 8 4 SSW - 3,5 -
20.05.2019 15:00:00 14,0 13,0 9 5 SSW - 4,0 -
20.05.2019 14:00:00 13,7 12,6 9 5 SW 1006,1 4,0 -
20.05.2019 13:00:00 13,0 12,0 5 3 SSW - 4,0 -
20.05.2019 12:00:00 13,0 12,0 5 3 WNW - 5 -
20.05.2019 11:00:00 13,5 12,5 8 4 WSW 1005,4 4,0 0,0
20.05.2019 10:00:00 13,0 12,0 5 3 W - 4,0 -
20.05.2019 09:00:00 13,0 12,0 8 4 W - 4,0 -
20.05.2019 08:00:00 12,5 12,2 4 2 - 1004,4 4,0 -
20.05.2019 07:00:00 12,0 12,0 2 1 - - 4,0 -
20.05.2019 06:00:00 12,0 12,0 2 1 - - 1,5 -
20.05.2019 05:00:00 11,9 11,9 4 2 E 1004,4 0,3 0,0
20.05.2019 04:00:00 12,0 12,0 2 1 E - 4,0 -
20.05.2019 03:00:00 11,0 11,0 2 1 - - 6 -
20.05.2019 02:00:00 12,1 11,9 2 1 - 1004,7 6 -
20.05.2019 01:00:00 13,0 13,0 4 2 WNW - 4,0 -
20.05.2019 00:00:00 13,0 13,0 4 2 - - 3,0 -
19.05.2019 23:00:00 13,3 12,8 5 3 SW 1005,7 6 0,0
19.05.2019 22:00:00 14,0 13,0 8 4 WSW - 6 -
19.05.2019 21:00:00 14,0 13,0 11 6 W - 6 -
19.05.2019 20:00:00 14,0 12,9 9 5 WSW 1005,0 7 -
19.05.2019 19:00:00 15,0 13,0 9 5 WSW - 7 -
19.05.2019 18:00:00 14,0 14,0 11 6 SW - 6 -
19.05.2019 17:00:00 14,4 13,5 9 5 SW 1004,8 6 0,0
19.05.2019 16:00:00 14,0 13,0 5 3 SW - 5 -
19.05.2019 15:00:00 14,0 13,0 8 4 SSW - 5 -
19.05.2019 14:00:00 13,9 12,6 5 3 WSW 1004,9 5 -
19.05.2019 13:00:00 14,0 13,0 5 3 WSW - 6 -
19.05.2019 12:00:00 14,0 12,0 5 3 SSW - 5 -
19.05.2019 11:00:00 13,1 12,0 2 1 - 1004,9 4,0 0,0
19.05.2019 10:00:00 13,0 12,0 4 2 - - 5 -
19.05.2019 09:00:00 13,0 12,0 4 2 - - 6 -
19.05.2019 08:00:00 12,4 11,9 4 2 - 1004,7 4,0 -
19.05.2019 07:00:00 12,0 12,0 2 1 - - 4,0 -
19.05.2019 06:00:00 12,0 12,0 2 1 - - 3,5 -
19.05.2019 05:00:00 12,3 12,2 2 1 - 1005,0 2,0 0,0
19.05.2019 04:00:00 12,0 12,0 2 1 WNW - 3,5 -
19.05.2019 03:00:00 12,0 12,0 2 1 - - 4,0 -
19.05.2019 02:00:00 12,3 12,1 4 2 ESE 1006,2 4,0 -
19.05.2019 01:00:00 13,0 12,0 4 2 E - 5 -
19.05.2019 00:00:00 12,0 12,0 4 2 E - 8 -
18.05.2019 23:00:00 12,9 11,9 2 1 - 1007,0 10 0,0
18.05.2019 22:00:00 13,0 12,0 5 3 WNW - 10 -
18.05.2019 21:00:00 14,0 12,0 5 3 WNW - 10 -
18.05.2019 20:00:00 13,8 11,2 9 5 W 1006,9 10 -
18.05.2019 19:00:00 14,0 12,0 8 4 WSW - 10 -
18.05.2019 18:00:00 15,0 11,0 8 4 W - 10 -
18.05.2019 17:00:00 14,0 12,0 5 3 NW - 8 -
18.05.2019 16:00:00 15,0 10,0 5 3 SE - 10 -
18.05.2019 15:00:00 16,0 10,0 8 4 WSW - 10 -
18.05.2019 14:00:00 15,2 10,3 9 5 W 1006,9 10 -
18.05.2019 13:00:00 14,0 11,0 5 3 NW - 10 -
18.05.2019 12:00:00 14,0 12,0 5 3 NNW - 10 -
18.05.2019 11:00:00 13,2 11,0 9 5 NW 1007,1 10 0,0
18.05.2019 10:00:00 12,0 11,0 5 3 N - 9 -
18.05.2019 09:00:00 12,0 11,0 2 1 - - 9 -
18.05.2019 08:00:00 12,3 11,4 2 1 - 1007,0 10 -
18.05.2019 07:00:00 12,0 11,0 4 2 - - 8 -
18.05.2019 06:00:00 11,0 11,0 5 3 - - 5 -
18.05.2019 05:00:00 11,6 11,3 4 2 - 1007,7 5 0,0
18.05.2019 04:00:00 12,0 11,0 2 1 - - 8 -
18.05.2019 03:00:00 12,0 11,0 9 5 N - 8 -
18.05.2019 02:00:00 12,1 11,4 2 1 NNE 1008,9 8 -
18.05.2019 01:00:00 13,0 11,0 5 3 NNE - 10 -
18.05.2019 00:00:00 13,0 12,0 4 2 - - 10 -
17.05.2019 23:00:00 13,6 11,1 8 4 SSW 1009,3 10 0,0
17.05.2019 22:00:00 15,0 10,0 8 4 SW - 10 -
17.05.2019 21:00:00 16,0 9,0 11 6 ESE - 10 -
17.05.2019 20:00:00 15,4 9,8 5 3 NNW 1008,2 10 -
17.05.2019 19:00:00 18,0 8,0 11 6 - - 10 -
17.05.2019 18:00:00 19,0 9,0 15 8 SE - 10 -
17.05.2019 17:00:00 18,6 8,8 18 10 SE 1008,6 10 0,0
17.05.2019 16:00:00 18,0 9,0 15 8 SE - 10 -
17.05.2019 15:00:00 19,0 8,0 13 7 ESE - 10 -
17.05.2019 14:00:00 17,8 8,6 15 8 SSE 1009,8 10 -
17.05.2019 13:00:00 17,0 9,0 16 9 SE - 10 -
17.05.2019 12:00:00 16,0 8,0 13 7 SE - 10 -
17.05.2019 11:00:00 15,6 7,7 13 7 SE 1010,0 10 0,0
17.05.2019 10:00:00 15,0 9,0 11 6 SE - 10 -
17.05.2019 09:00:00 15,0 9,0 11 6 ESE - 10 -
17.05.2019 08:00:00 13,2 9,8 4 2 NNE 1010,4 10 -
17.05.2019 07:00:00 11,0 9,0 8 4 NE - 10 -
17.05.2019 06:00:00 10,0 8,0 9 5 N - 10 -
17.05.2019 05:00:00 10,1 8,1 9 5 N 1010,1 10 0,0
17.05.2019 04:00:00 12,0 9,0 5 3 N - 10 -
17.05.2019 03:00:00 13,0 9,0 5 3 ENE - 10 -
17.05.2019 02:00:00 12,4 8,8 5 3 NE 1011,1 10 -
17.05.2019 01:00:00 12,0 9,0 8 4 NE - 10 -
17.05.2019 00:00:00 13,0 9,0 4 2 NE - 10 -
16.05.2019 23:00:00 14,2 8,4 5 3 ESE 1011,4 10 0,0
16.05.2019 22:00:00 14,0 8,0 8 4 SE - 10 -
16.05.2019 21:00:00 15,0 8,0 5 3 SE - 8 -
16.05.2019 20:00:00 15,9 7,6 9 5 SSE 1010,3 8 -
16.05.2019 19:00:00 17,0 8,0 9 5 SSE - 8 -
16.05.2019 18:00:00 17,0 8,0 9 5 E - 8 -
16.05.2019 17:00:00 17,7 8,0 8 4 SE 1010,5 8 0,0
16.05.2019 16:00:00 18,0 7,0 5 3 - - 8 -
16.05.2019 15:00:00 18,0 8,0 9 5 S - 8 -
16.05.2019 14:00:00 17,0 7,7 5 3 - 1011,9 10 -
16.05.2019 13:00:00 17,0 8,0 11 6 ESE - 10 -
16.05.2019 12:00:00 16,0 9,0 9 5 SSE - 10 -
16.05.2019 11:00:00 15,4 7,4 8 4 SSW 1013,1 9 0,0
16.05.2019 10:00:00 13,0 7,0 8 4 E - 9 -
16.05.2019 09:00:00 13,0 6,0 5 3 ESE - 7 -
16.05.2019 08:00:00 9,7 6,7 4 2 N 1013,5 7 -
16.05.2019 07:00:00 6,0 6,0 4 2 N - 10 -
16.05.2019 06:00:00 7,0 5,0 5 3 N - 9 -
16.05.2019 05:00:00 5,9 4,6 5 3 N 1013,5 9 0,0
16.05.2019 04:00:00 - - - - - - - -
16.05.2019 03:00:00 7,0 5,0 8 4 N - 10 -
16.05.2019 02:00:00 7,3 5,5 8 4 N 1014,8 10 -
16.05.2019 01:00:00 8,0 6,0 8 4 N - 10 -
16.05.2019 00:00:00 8,0 6,0 5 3 N - 10 -
15.05.2019 23:00:00 8,4 5,5 2 1 - 1015,6 10 0,0
15.05.2019 22:00:00 22,0 18,0 5 3 NE - 8 -
15.05.2019 21:00:00 11,0 5,0 8 4 SSW - 10 -
15.05.2019 20:00:00 11,9 5,5 9 5 S 1014,5 10 -
15.05.2019 19:00:00 13,0 6,0 13 7 SSW - 10 -
15.05.2019 18:00:00 14,0 6,0 9 5 SW - 10 -
15.05.2019 17:00:00 12,6 6,4 8 4 S 1014,6 10 0,0
15.05.2019 16:00:00 12,0 6,0 13 7 SE - 10 -
15.05.2019 15:00:00 13,0 7,0 13 7 SSE - 10 -
15.05.2019 14:00:00 13,1 6,4 16 9 SE 1015,1 10 -
15.05.2019 13:00:00 13,0 5,0 13 7 SE - 10 -

tt = temperature
td = dewpoint
ff = wind speed
dd = wind direction
ppp = reduced air pressure
vv = visibility
rr = precipitation

Next stations